Weather Roundup
Issued by NWS Springfield, MO

Home | Current Version | Previous Version | Text Only | Print | Product List | Glossary On
Versions: 1 2 3 4 5 6 7 8 9 10 11 12 13 14 15 16 17 18 19 20 21 22 23 24 25 26 27 28 29 30 31 32 33 34 35 36 37 38 39 40 41 42 43 44 45 46 47 48 49 50
000
NZUS99 KSGF 242059
HRRSGF

HOURLY WEATHER
NATIONAL WEATHER SERVICE SPRINGFIELD MO
400 PM CDT THU APR 24 2014

......SGF CWA......

CITY           SKY/WX    TMP DP  RH WIND       PRES   REMARKS
SPRINGFIELD    PTSUNNY   68  62  81 S21       29.63F
JOPLIN         LGT RAIN  60  58  92 W21       29.65R
WEST PLAINS    CLOUDY    73  53  49 S12G23    29.69F
ROLLA          CLOUDY    74  52  46 S16G24    29.62F
OSAGE BEACH    CLOUDY    57  52  82 NW13G24   29.69R
BRANSON        CLOUDY    64  59  82 S16G24    29.70F

......SURROUNDING SGF CWA......

CITY           SKY/WX    TMP DP  RH WIND       PRES   REMARKS
CHANUTE        CLOUDY    63  52  67 NW17G24   29.71R
PARSONS        CLOUDY    63  54  72 NW16G25   29.72R
COFFEYVILLE    CLOUDY    62  53  72 NW16G25   29.72R
EMPORIA        CLOUDY    61  46  57 NW23G29   29.77R
SILOAM SPRINGS CLOUDY    64  55  72 SW14G21   29.69F
HARRISON AR    PTSUNNY   68  59  73 S15G26    29.71F
NEAR YELLVILLE CLOUDY    70  52  52 SW9G22    29.70F

......KANSAS AND MISSOURI......

CITY           SKY/WX    TMP DP  RH WIND       PRES   REMARKS
KANSAS CTY INT CLOUDY    58  52  80 NW17G25   29.68R
DOWNTOWN KC    CLOUDY    60  53  77 N12G17    29.69R
COLUMBIA       LGT RAIN  71  53  52 SW30G43   29.65R
SEDALIA        LGT RAIN  59  56  89 N8        29.61F FOG
ST JOSEPH      CLOUDY    56  49  77 N16G31    29.68R
ST LOUIS       PTSUNNY   79  47  32 S17G23    29.62F
SPIRIT OF STL  PTSUNNY   77  49  37 S12G18    29.61F
KIRKSVILLE     LGT RAIN  55  55 100 S7        29.62F FOG
WICHITA        PTSUNNY   67  38  34 NW23G30   29.84R
TOPEKA         CLOUDY    62  50  64 NW14G25   29.74R
OLATHE         CLOUDY    57  52  83 N15       29.68R

......TENNESSEE......

CITY           SKY/WX    TMP DP  RH WIND       PRES   REMARKS
MEMPHIS        MOSUNNY   81  54  39 S17G29    29.77F
NASHVILLE      PTSUNNY   80  43  26 S12       29.85F

......ARKANSAS.......

CITY           SKY/WX    TMP DP  RH WIND       PRES   REMARKS
FAYETTEVILLE   LGT RAIN  64  61  90 SW7       29.67F
FT SMITH       LGT RAIN  61  56  83 W9        29.70R
LITTLE ROCK    LGT RAIN  69  65  86 SW10      29.74R

......OKLAHOMA.......

CITY           SKY/WX    TMP DP  RH WIND       PRES   REMARKS
TULSA          PTSUNNY   69  52  54 NW25G36   29.74R
PONCA CITY     MOSUNNY   70  38  31 N23G35    29.82R
MCALESTER      MOSUNNY   77  51  40 NW17G24   29.77R
OKLAHOMA CITY  MOSUNNY   75  39  27 N24G37    29.84S

......IOWA............

CITY           SKY/WX    TMP DP  RH WIND       PRES   REMARKS
DES MOINES     CLOUDY    54  47  77 NW17G24   29.69R
QUAD CITIES    CLOUDY    60  49  66 S10G21    29.64F

......ILLINOIS........

CITY           SKY/WX    TMP DP  RH WIND       PRES   REMARKS
QUINCY         CLOUDY    67  49  52 E9        29.60F
CHICAGO        CLOUDY    63  30  28 SE25G32   29.77F



USA.gov is the U.S. government's official web portal to all federal, state and local government web resources and services.